Voltar ao catálogo

DELTA 1 DEB

AtivoLEO
NORAD 10250·DEBRIS·🇺🇸 United States

Lançado Jul 14, 1977 de Cape Canaveral Space Force Station

Loading…

Próximas Passagens (próximas 24 horas)

TLE

AtualizadoSource: Space-Track

Época: Sep 14, 2026, 14:35 UTC

1 10250U 77065CB  26257.60814746  .00001942  00000-0  35710-3 0  9996
2 10250  29.0817  25.8063 0529601 267.3329  86.6541 13.98979958320672

Acompanhe DELTA 1 DEB em tempo real com AllMySat

Download on the App Store